STARLINK-32762, 62748

Orbit data source: Space-Track

STARLINK-32762, 62748 is a payload satellite owned by SpaceX/Seattle (US) in LEO that was launched on Tue, 21 Jan 2025 UTC via an FALCON 9 launch vehicle from the Air Force Eastern Test Range (AFETR). Payload-class satellites include a variety of spacecraft equipped with specific instruments for various scientific and technological missions. These include communications satellites like Starlink; space stations such as the ISS; scientific satellites like the Hubble; Earth observation satellites from companies like Planet Labs, Umbra, and HawkEye 360; GPS; miniature CubeSats for education and research; and military/defense satellites.

Loading next visibility...
Identifier
62748, 2025-014P
Orbit
LEO
Country
Flag of USUS
Related business
Manufacturer
SpaceX/Seattle
Mission
Operational Commercial Communications
Bus & Motor
STARLINK V2M, Unknown motor
Mass
730 kg wet, ~700 kg dry
Launch date (UTC)
2025-01-21 (11 months ago)
Launch vehicle
FALCON 9
Launch site
Air Force Eastern Test Range (AFETR)
Object type
Payload
Rocket body
Debris
Shape & HBR
Box + 2 Pan, 17.7 m
Radar Cross Section
33.884 m², Large (>1 m²)

Expand to show TLE details & history
Last TLE update: 1 day ago

TLE from 1 day ago
0 STARLINK-32762
1 62748U 25014P   25348.19003060  .00049873  00000-0  18110-2 0  9994
2 62748  43.0008 280.5081 0001379 248.7095 111.3610 15.27556163 50147
Epoch: 2025-12-14T04:33Z
TLE epoch observation values (Epoch: 2025-12-14T04:33:38.643Z)
Latitude
Longitude
128.99058°
Altitude
483.241 km
Speed
7.625 km/s
True Right ascension
18h 42m 01s
True Declination
0° 00' 00"
Sunlit
Object was in daylight at epoch
Visualization orbit readout
Latitude
Unknown
Longitude
Unknown
Altitude
Unknown
Speed
Unknown
Apparent Right ascension
Unknown
Apparent Declination
Unknown
Sunlit
N/A
Visualization observer readout
Local Sidereal Time
13:26:13
Azimuth
Unknown
Elevation
Unknown
Doppler factor
Unknown
Orbital elements
Apogee altitude
486.012 km
Perigee altitude
484.119 km
Semi-major axis
6,863.202 km
Eccentricity
0.00014
Inclination
43.0008°
RAAN
280.5081°
Arg. of periapsis
248.7095°
True anomaly
111.37572°
Mean anomaly
111.361°
Eccentric anomaly
111.36836°
Mean motion
3.81727 °/min
Orbital period
94.31 mins
BSTAR
0.001811
Loading maneuver chart data...
Computing Atmospheric mass density...
Loading historical data...
Loading historical data...
Loading historical data...
Loading historical data...
Loading historical data...
Loading historical data...
Loading historical data...

Documentation

Showing up to 5 results
|